Date String (YYYY-MM-DD hh:mm:ss) UTC,Instrument flags,absolute air pressure of the measurement (hPa),sample flow rate (lpm),inlet stack bypass flow (lpm),air temperature of the measurement (°C),ambient temperature measured by the external sensor (°C),aerosol sample conditioner tube jacket temperature (°C),OPC LED temperature (°C),internal box temperature (°C),relative humidity of the measurement (%),span deviation,mass concentration of particles derived from Lorenz-Mie calculation of OPC scattering (μg/m³),mass concentration of particles derived from Lorenz-Mie calculation of OPC scattering (μg/m³),mass concentration of particles derived from Lorenz-Mie calculation of OPC scattering (μg/m³)
DateTimeUTC,F1_M11,P_M11,Q1_M11,Q2_M11,T1_M11,T2_M11,T3_M11,T4_M11,T5_M11,U1_M11,ZSPAN_M11,X2_M11,X0_M11,X1_M11
2024-04-11 13:00:00,SystemResetWarning,0833.0,4.99,000.00,023.5,022.8,000.0,032.1,025.4,014.6,0000.0,0002.35,0009.30,0001.68
2024-04-11 13:01:00,SystemResetWarning,0833.0,5.00,000.00,023.5,022.8,000.0,032.1,025.4,014.4,0000.0,0002.31,0008.89,0001.66
2024-04-11 13:02:00,SystemResetWarning,0833.0,5.00,000.00,023.5,022.8,000.0,032.1,025.4,014.4,0000.0,0002.26,0009.36,0001.63
2024-04-11 13:03:00,SystemResetWarning,0833.0,5.00,000.00,023.5,022.8,000.0,032.1,025.4,014.4,0000.0,0002.22,0009.58,0001.61
2024-04-11 13:04:00,SystemResetWarning,0833.1,5.00,000.00,023.5,022.8,000.0,032.1,025.4,014.6,0000.0,0002.24,0009.47,0001.59
2024-04-11 13:05:00,SystemResetWarning,0833.1,5.00,000.00,023.5,022.8,000.0,032.1,025.4,014.7,0000.0,0002.22,0009.72,0001.55
2024-04-11 13:06:00,SystemResetWarning,0833.1,5.00,000.00,023.5,022.8,000.0,032.1,025.4,014.9,0000.0,0002.16,0009.73,0001.52
2024-04-11 13:07:00,SystemResetWarning,0833.3,5.01,000.00,023.5,022.8,000.0,032.1,025.4,014.4,0000.0,0002.14,0009.14,0001.49
2024-04-11 13:08:00,SystemResetWarning,0833.2,5.00,000.00,023.5,022.8,000.0,032.1,025.4,014.3,0000.0,0002.06,0007.77,0001.45
2024-04-11 13:09:00,SystemResetWarning,0833.5,4.99,000.00,023.5,022.8,000.0,032.1,025.4,014.2,0000.0,0002.05,0007.58,0001.42
2024-04-11 13:10:00,SystemResetWarning,0833.4,4.99,000.00,023.5,022.8,000.0,032.1,025.4,014.2,0000.0,0001.99,0007.79,0001.39
2024-04-11 13:11:00,SystemResetWarning,0833.1,5.01,000.00,023.5,022.8,000.0,032.1,025.4,014.2,0000.0,0001.96,0008.35,0001.37
2024-04-11 13:12:00,SystemResetWarning,0833.2,5.00,000.00,023.5,022.8,000.0,032.1,025.4,014.1,0000.0,0001.92,0008.45,0001.35
2024-04-11 13:13:00,SystemResetWarning,0833.2,4.99,000.00,023.5,022.8,000.0,032.0,025.4,014.3,0000.0,0001.91,0007.83,0001.34
2024-04-11 13:14:00,SystemResetWarning,0833.0,4.99,000.00,023.5,022.8,000.0,032.0,025.4,014.2,0000.0,0001.91,0007.60,0001.32
2024-04-11 13:15:00,SystemResetWarning,0833.0,5.00,000.00,023.5,022.8,000.0,032.0,025.4,014.1,0000.0,0001.86,0006.58,0001.31
2024-04-11 13:16:00,SystemResetWarning,0833.0,5.00,000.00,023.5,022.8,000.0,032.0,025.4,014.3,0000.0,0001.80,0005.85,0001.28
2024-04-11 13:17:00,SystemResetWarning,0833.2,5.01,000.00,023.5,022.8,000.0,032.0,025.4,014.4,0000.0,0001.78,0006.13,0001.25
2024-04-11 13:18:00,SystemResetWarning,0833.4,5.00,000.00,023.5,022.8,000.0,032.0,025.4,014.4,0000.0,0001.79,0006.03,0001.24
2024-04-11 13:19:00,SystemResetWarning,0833.3,4.99,000.00,023.5,022.8,000.0,032.0,025.3,014.1,0000.0,0001.81,0006.17,0001.24
2024-04-11 13:20:00,SystemResetWarning,0833.2,5.01,000.00,023.5,022.8,000.0,032.0,025.4,014.3,0000.0,0001.75,0005.85,0001.22
2024-04-11 13:21:00,SystemResetWarning,0833.0,5.00,000.00,023.5,022.8,000.0,032.0,025.4,014.3,0000.0,0001.77,0006.40,0001.22
2024-04-11 13:22:00,SystemResetWarning,0832.9,4.99,000.00,023.5,022.8,000.0,032.0,025.4,014.3,0000.0,0001.76,0005.67,0001.21
2024-04-11 13:23:00,SystemResetWarning,0833.0,5.00,000.00,023.5,022.8,000.0,032.0,025.4,014.7,0000.0,0001.79,0005.84,0001.21
2024-04-11 13:24:00,SystemResetWarning,0833.1,4.99,000.00,023.5,022.8,000.0,032.0,025.4,014.5,0000.0,0001.80,0007.27,0001.20
2024-04-11 13:25:00,SystemResetWarning,0833.1,4.99,000.00,023.5,022.8,000.0,032.0,025.3,014.3,0000.0,0001.75,0007.14,0001.18
2024-04-11 13:26:00,SystemResetWarning,0833.2,5.01,000.00,023.5,022.8,000.0,032.0,025.3,014.4,0000.0,0001.71,0007.18,0001.18
2024-04-11 13:27:00,SystemResetWarning,0833.0,5.01,000.00,023.5,022.8,000.0,032.0,025.4,014.4,0000.0,0001.77,0007.36,0001.20
2024-04-11 13:28:00,SystemResetWarning,0833.1,5.01,000.00,023.5,022.8,000.0,032.0,025.4,014.2,0000.0,0001.79,0007.01,0001.21
2024-04-11 13:29:00,SystemResetWarning,0833.0,5.00,000.00,023.5,022.8,000.0,032.0,025.3,014.2,0000.0,0001.79,0006.87,0001.21
2024-04-11 13:30:00,SystemResetWarning,0833.2,5.00,000.00,023.5,022.8,000.0,032.0,025.3,014.5,0000.0,0001.74,0006.90,0001.20
2024-04-11 13:31:00,SystemResetWarning,0833.0,5.00,000.00,023.5,022.8,000.0,032.0,025.4,014.6,0000.0,0001.73,0007.24,0001.20
2024-04-11 13:32:00,SystemResetWarning,0833.2,5.00,000.00,023.5,022.8,000.0,032.0,025.4,014.4,0000.0,0001.73,0006.51,0001.22
2024-04-11 13:33:00,SystemResetWarning,0833.4,5.00,000.00,023.5,022.8,000.0,032.0,025.3,014.3,0000.0,0001.73,0005.72,0001.23
2024-04-11 13:34:00,SystemResetWarning,0833.2,5.01,000.00,023.5,022.8,000.0,032.0,025.3,014.4,0000.0,0001.72,0006.76,0001.25
2024-04-11 13:35:00,SystemResetWarning,0833.0,5.01,000.00,023.5,022.8,000.0,032.0,025.3,014.4,0000.0,0001.73,0006.67,0001.27
2024-04-11 13:36:00,SystemResetWarning,0833.1,4.99,000.00,023.5,022.8,000.0,032.0,025.4,014.4,0000.0,0001.78,0006.75,0001.29
2024-04-11 13:37:00,SystemResetWarning,0833.0,4.99,000.00,023.5,022.8,000.0,032.0,025.3,014.6,0000.0,0001.78,0006.66,0001.29
2024-04-11 13:38:00,SystemResetWarning,0833.0,5.00,000.00,023.5,022.8,000.0,032.0,025.3,014.6,0000.0,0001.72,0006.43,0001.29
2024-04-11 13:39:00,SystemResetWarning,0833.0,5.00,000.00,023.5,022.8,000.0,032.0,025.3,014.6,0000.0,0001.75,0007.53,0001.31
2024-04-11 13:40:00,SystemResetWarning,0833.0,5.01,000.00,023.5,022.8,000.0,032.0,025.3,014.7,0000.0,0001.73,0007.55,0001.32
2024-04-11 13:41:00,SystemResetWarning,0833.0,5.00,000.00,023.5,022.8,000.0,032.0,025.3,014.6,0000.0,0001.75,0007.37,0001.35
2024-04-11 13:42:00,SystemResetWarning,0833.0,5.00,000.00,023.5,022.8,000.0,032.0,025.3,014.5,0000.0,0001.79,0007.08,0001.39
2024-04-11 13:43:00,SystemResetWarning,0833.0,5.00,000.00,023.5,022.8,000.0,032.0,025.3,014.5,0000.0,0001.80,0007.09,0001.41
2024-04-11 13:44:00,SystemResetWarning,0833.2,4.99,000.00,023.5,022.8,000.0,032.0,025.3,014.7,0000.0,0001.84,0007.16,0001.44
2024-04-11 13:45:00,SystemResetWarning,0833.1,5.00,000.00,023.5,022.8,000.0,032.0,025.3,014.7,0000.0,0001.85,0006.51,0001.45
2024-04-11 13:46:00,SystemResetWarning,0833.0,5.00,000.00,023.5,022.8,000.0,032.0,025.3,014.8,0000.0,0001.87,0005.49,0001.46
2024-04-11 13:47:00,SystemResetWarning,0833.1,5.01,000.00,023.5,022.8,000.0,032.0,025.3,014.8,0000.0,0001.88,0006.15,0001.49
2024-04-11 13:48:00,SystemResetWarning,0833.0,5.00,000.00,023.4,022.8,000.0,032.0,025.3,014.9,0000.0,0001.93,0006.37,0001.52
2024-04-11 13:49:00,SystemResetWarning,0833.4,5.00,000.00,023.4,022.8,000.0,032.0,025.3,014.9,0000.0,0002.01,0006.43,0001.55
2024-04-11 13:50:00,SystemResetWarning,0833.1,5.00,000.00,023.4,022.8,000.0,032.0,025.3,015.0,0000.0,0002.09,0005.32,0001.59
2024-04-11 13:51:00,SystemResetWarning,0833.0,5.00,000.00,023.4,022.7,000.0,032.0,025.3,015.1,0000.0,0002.14,0005.30,0001.62
2024-04-11 13:52:00,SystemResetWarning,0833.2,5.00,000.00,023.4,022.7,000.0,032.0,025.3,015.0,0000.0,0002.16,0005.37,0001.63
2024-04-11 13:53:00,SystemResetWarning,0833.3,5.00,000.00,023.4,022.7,000.0,032.0,025.3,015.0,0000.0,0002.17,0005.72,0001.63
2024-04-11 13:54:00,SystemResetWarning,0833.0,4.99,000.00,023.4,022.7,000.0,032.0,025.3,015.0,0000.0,0002.22,0006.67,0001.65
2024-04-11 13:55:00,SystemResetWarning,0833.2,5.00,000.00,023.4,022.7,000.0,032.0,025.3,015.0,0000.0,0002.26,0006.77,0001.65
2024-04-11 13:56:00,SystemResetWarning,0833.2,5.01,000.00,023.4,022.7,000.0,032.0,025.3,015.1,0000.0,0002.33,0006.53,0001.66
2024-04-11 13:57:00,SystemResetWarning,0833.1,5.01,000.00,023.4,022.7,000.0,032.0,025.2,015.2,0000.0,0002.42,0006.02,0001.68
2024-04-11 13:58:00,SystemResetWarning,0833.2,5.01,000.00,023.4,022.7,000.0,032.0,025.2,015.1,0000.0,0002.44,0006.19,0001.70
2024-04-11 13:59:00,SystemResetWarning,0833.0,4.99,000.00,023.4,022.7,000.0,032.0,025.3,015.2,0000.0,0002.43,0006.41,0001.70
